Time,TemperatureF,DewpointF,PressureIn,WindDirection,WindDirectionDegrees,WindSpeedMPH,WindSpeedGustMPH,Humidity,HourlyPrecipIn,Conditions,Clouds,dailyrainin,SolarRadiationWatts/m^2,SoftwareType,DateUTC
2013-05-06 00:02:00,48.0,25.0,-100.00,South,183,2.0,5.0,41,0.00,,,0.00,0.000000,,2013-05-06 06:02:00,
2013-05-06 00:12:00,48.0,25.0,-100.00,South,183,2.0,5.0,41,0.00,,,0.00,0.000000,,2013-05-06 06:12:00,
2013-05-06 00:21:00,48.0,25.0,-100.00,South,183,2.0,5.0,41,0.00,,,0.00,0.000000,,2013-05-06 06:21:00,
2013-05-06 00:52:00,46.0,27.0,-100.00,SSE,162,3.0,6.0,48,0.00,,,0.00,0.000000,,2013-05-06 06:52:00,
2013-05-06 01:01:00,46.0,27.0,-100.00,SSE,162,3.0,6.0,48,0.00,,,0.00,0.000000,,2013-05-06 07:01:00,
2013-05-06 01:11:00,46.0,27.0,-100.00,SSE,162,3.0,6.0,48,0.00,,,0.00,0.000000,,2013-05-06 07:11:00,
2013-05-06 01:22:00,46.0,27.0,-100.00,SSE,162,3.0,6.0,48,0.00,,,0.00,0.000000,,2013-05-06 07:22:00,
2013-05-06 01:52:00,46.0,27.0,-100.00,SSE,156,3.0,7.0,47,0.00,,,0.00,0.000000,,2013-05-06 07:52:00,
2013-05-06 02:02:00,46.0,27.0,-100.00,SSE,156,3.0,7.0,47,0.00,,,0.00,0.000000,,2013-05-06 08:02:00,
2013-05-06 02:12:00,46.0,27.0,-100.00,SSE,156,3.0,7.0,47,0.00,,,0.00,0.000000,,2013-05-06 08:12:00,
2013-05-06 02:22:00,46.0,27.0,-100.00,SSE,156,3.0,7.0,47,0.00,,,0.00,0.000000,,2013-05-06 08:22:00,
2013-05-06 02:52:00,45.0,27.0,-100.00,SSE,159,2.0,7.0,48,0.00,,,0.00,0.000000,,2013-05-06 08:52:00,
2013-05-06 03:01:00,45.0,27.0,-100.00,SSE,159,2.0,7.0,48,0.00,,,0.00,0.000000,,2013-05-06 09:01:00,
2013-05-06 03:11:00,45.0,27.0,-100.00,SSE,159,2.0,7.0,48,0.00,,,0.00,0.000000,,2013-05-06 09:11:00,
2013-05-06 03:22:00,45.0,27.0,-100.00,SSE,159,2.0,7.0,48,0.00,,,0.00,0.000000,,2013-05-06 09:22:00,
2013-05-06 03:53:00,43.0,25.0,-100.00,South,174,3.0,7.0,48,0.00,,,0.00,0.000000,,2013-05-06 09:53:00,
2013-05-06 04:02:00,43.0,25.0,-100.00,South,174,3.0,7.0,48,0.00,,,0.00,0.000000,,2013-05-06 10:02:00,
2013-05-06 04:12:00,43.0,25.0,-100.00,South,174,3.0,7.0,48,0.00,,,0.00,0.000000,,2013-05-06 10:12:00,
2013-05-06 04:22:00,43.0,25.0,-100.00,South,174,3.0,7.0,48,0.00,,,0.00,0.000000,,2013-05-06 10:22:00,
2013-05-06 04:42:00,43.0,24.0,-100.00,SSW,211,3.0,6.0,46,0.00,,,0.00,0.000000,,2013-05-06 10:42:00,
2013-05-06 04:52:00,43.0,24.0,-100.00,SSW,211,3.0,6.0,46,0.00,,,0.00,0.000000,,2013-05-06 10:52:00,
2013-05-06 05:02:00,43.0,24.0,-100.00,SSW,211,3.0,6.0,46,0.00,,,0.00,0.000000,,2013-05-06 11:02:00,
2013-05-06 05:12:00,43.0,24.0,-100.00,SSW,211,3.0,6.0,46,0.00,,,0.00,0.000000,,2013-05-06 11:12:00,
2013-05-06 05:22:00,43.0,24.0,-100.00,SSW,211,3.0,6.0,46,0.00,,,0.00,0.000000,,2013-05-06 11:22:00,
2013-05-06 05:52:00,44.0,25.0,-100.00,South,189,3.0,8.0,46,0.00,,,0.00,0.000000,,2013-05-06 11:52:00,
2013-05-06 06:01:00,44.0,25.0,-100.00,South,189,3.0,8.0,46,0.00,,,0.00,0.000000,,2013-05-06 12:01:00,
2013-05-06 06:12:00,44.0,25.0,-100.00,South,189,3.0,8.0,46,0.00,,,0.00,0.000000,,2013-05-06 12:12:00,
2013-05-06 06:21:00,44.0,25.0,-100.00,South,189,3.0,8.0,46,0.00,,,0.00,0.000000,,2013-05-06 12:21:00,
2013-05-06 06:42:00,45.0,24.0,-100.00,SSW,204,3.0,9.0,43,0.00,,,0.00,33.000000,,2013-05-06 12:42:00,
2013-05-06 06:52:00,45.0,24.0,-100.00,SSW,204,3.0,9.0,43,0.00,,,0.00,33.000000,,2013-05-06 12:52:00,
2013-05-06 07:01:00,45.0,24.0,-100.00,SSW,204,3.0,9.0,43,0.00,,,0.00,33.000000,,2013-05-06 13:01:00,
2013-05-06 07:11:00,45.0,24.0,-100.00,SSW,204,3.0,9.0,43,0.00,,,0.00,33.000000,,2013-05-06 13:11:00,
2013-05-06 07:21:00,45.0,24.0,-100.00,SSW,204,3.0,9.0,43,0.00,,,0.00,33.000000,,2013-05-06 13:21:00,
2013-05-06 07:52:00,54.0,28.0,-100.00,South,181,4.0,7.0,37,0.00,,,0.00,209.000000,,2013-05-06 13:52:00,
2013-05-06 08:01:00,54.0,28.0,-100.00,South,181,4.0,7.0,37,0.00,,,0.00,209.000000,,2013-05-06 14:01:00,
2013-05-06 08:11:00,54.0,28.0,-100.00,South,181,4.0,7.0,37,0.00,,,0.00,209.000000,,2013-05-06 14:11:00,
2013-05-06 08:21:00,54.0,28.0,-100.00,South,181,4.0,7.0,37,0.00,,,0.00,209.000000,,2013-05-06 14:21:00,
2013-05-06 08:42:00,60.0,27.0,-100.00,SSE,167,4.0,7.0,28,0.00,,,0.00,417.000000,,2013-05-06 14:42:00,
2013-05-06 08:52:00,60.0,27.0,-100.00,SSE,167,4.0,7.0,28,0.00,,,0.00,417.000000,,2013-05-06 14:52:00,
2013-05-06 09:01:00,60.0,27.0,-100.00,SSE,167,4.0,7.0,28,0.00,,,0.00,417.000000,,2013-05-06 15:01:00,
2013-05-06 09:11:00,60.0,27.0,-100.00,SSE,167,4.0,7.0,28,0.00,,,0.00,417.000000,,2013-05-06 15:11:00,
2013-05-06 09:21:00,60.0,27.0,-100.00,SSE,167,4.0,7.0,28,0.00,,,0.00,417.000000,,2013-05-06 15:21:00,
2013-05-06 09:53:00,67.0,28.0,-100.00,South,170,6.0,12.0,23,0.00,,,0.00,624.000000,,2013-05-06 15:53:00,
2013-05-06 10:03:00,67.0,28.0,-100.00,South,170,6.0,12.0,23,0.00,,,0.00,624.000000,,2013-05-06 16:03:00,
2013-05-06 10:13:00,67.0,28.0,-100.00,South,170,6.0,12.0,23,0.00,,,0.00,624.000000,,2013-05-06 16:13:00,
2013-05-06 10:23:00,67.0,28.0,-100.00,South,170,6.0,12.0,23,0.00,,,0.00,624.000000,,2013-05-06 16:23:00,
2013-05-06 10:52:00,66.0,26.0,-100.00,SSE,168,7.0,16.0,22,0.00,,,0.00,811.000000,,2013-05-06 16:52:00,
2013-05-06 11:03:00,66.0,26.0,-100.00,SSE,168,7.0,16.0,22,0.00,,,0.00,811.000000,,2013-05-06 17:03:00,
2013-05-06 11:12:00,66.0,26.0,-100.00,SSE,168,7.0,16.0,22,0.00,,,0.00,811.000000,,2013-05-06 17:12:00,
2013-05-06 11:23:00,66.0,26.0,-100.00,SSE,168,7.0,16.0,22,0.00,,,0.00,811.000000,,2013-05-06 17:23:00,
2013-05-06 11:52:00,68.0,27.0,-100.00,SSE,153,6.0,16.0,21,0.00,,,0.00,960.000000,,2013-05-06 17:52:00,
2013-05-06 12:01:00,68.0,27.0,-100.00,SSE,153,6.0,16.0,21,0.00,,,0.00,960.000000,,2013-05-06 18:01:00,
2013-05-06 12:12:00,68.0,27.0,-100.00,SSE,153,6.0,16.0,21,0.00,,,0.00,960.000000,,2013-05-06 18:12:00,
2013-05-06 12:21:00,68.0,27.0,-100.00,SSE,153,6.0,16.0,21,0.00,,,0.00,960.000000,,2013-05-06 18:21:00,
2013-05-06 12:43:00,70.0,26.0,-100.00,SSE,168,5.0,14.0,19,0.00,,,0.00,1058.000000,,2013-05-06 18:43:00,
2013-05-06 12:52:00,70.0,26.0,-100.00,SSE,168,5.0,14.0,19,0.00,,,0.00,1058.000000,,2013-05-06 18:52:00,
2013-05-06 13:01:00,70.0,26.0,-100.00,SSE,168,5.0,14.0,19,0.00,,,0.00,1058.000000,,2013-05-06 19:01:00,
2013-05-06 13:11:00,70.0,26.0,-100.00,SSE,168,5.0,14.0,19,0.00,,,0.00,1058.000000,,2013-05-06 19:11:00,
2013-05-06 13:22:00,70.0,26.0,-100.00,SSE,168,5.0,14.0,19,0.00,,,0.00,1058.000000,,2013-05-06 19:22:00,
2013-05-06 13:42:00,72.0,27.0,-100.00,SE,129,6.0,16.0,19,0.00,,,0.00,1093.000000,,2013-05-06 19:42:00,
2013-05-06 13:52:00,72.0,27.0,-100.00,SE,129,6.0,16.0,19,0.00,,,0.00,1093.000000,,2013-05-06 19:52:00,
2013-05-06 14:02:00,72.0,27.0,-100.00,SE,129,6.0,16.0,19,0.00,,,0.00,1093.000000,,2013-05-06 20:02:00,
2013-05-06 14:11:00,72.0,27.0,-100.00,SE,129,6.0,16.0,19,0.00,,,0.00,1093.000000,,2013-05-06 20:11:00,
2013-05-06 14:21:00,72.0,27.0,-100.00,SE,129,6.0,16.0,19,0.00,,,0.00,1093.000000,,2013-05-06 20:21:00,
2013-05-06 14:52:00,74.0,28.0,-100.00,SE,131,6.0,14.0,18,0.00,,,0.00,1067.000000,,2013-05-06 20:52:00,
2013-05-06 15:01:00,74.0,28.0,-100.00,SE,131,6.0,14.0,18,0.00,,,0.00,1067.000000,,2013-05-06 21:01:00,
2013-05-06 15:11:00,74.0,28.0,-100.00,SE,131,6.0,14.0,18,0.00,,,0.00,1067.000000,,2013-05-06 21:11:00,
2013-05-06 15:21:00,74.0,28.0,-100.00,SE,131,6.0,14.0,18,0.00,,,0.00,1067.000000,,2013-05-06 21:21:00,
2013-05-06 15:53:00,74.0,25.0,-100.00,ESE,123,3.0,15.0,16,0.00,,,0.00,981.000000,,2013-05-06 21:53:00,
2013-05-06 16:03:00,74.0,25.0,-100.00,ESE,123,3.0,15.0,16,0.00,,,0.00,981.000000,,2013-05-06 22:03:00,
2013-05-06 16:12:00,74.0,25.0,-100.00,ESE,123,3.0,15.0,16,0.00,,,0.00,981.000000,,2013-05-06 22:12:00,
2013-05-06 16:22:00,74.0,25.0,-100.00,ESE,123,3.0,15.0,16,0.00,,,0.00,981.000000,,2013-05-06 22:22:00,
2013-05-06 16:45:00,74.0,23.0,-100.00,NE,35,5.0,13.0,15,0.00,,,0.00,840.000000,,2013-05-06 22:45:00,
2013-05-06 16:52:00,74.0,23.0,-100.00,NE,35,5.0,13.0,15,0.00,,,0.00,840.000000,,2013-05-06 22:52:00,
2013-05-06 17:03:00,74.0,23.0,-100.00,NE,35,5.0,13.0,15,0.00,,,0.00,840.000000,,2013-05-06 23:03:00,
2013-05-06 17:12:00,74.0,23.0,-100.00,NE,35,5.0,13.0,15,0.00,,,0.00,840.000000,,2013-05-06 23:12:00,
2013-05-06 17:22:00,74.0,23.0,-100.00,NE,35,5.0,13.0,15,0.00,,,0.00,840.000000,,2013-05-06 23:22:00,
2013-05-06 17:52:00,75.0,24.0,-100.00,SE,144,6.0,12.0,15,0.00,,,0.00,656.000000,,2013-05-06 23:52:00,
2013-05-06 18:01:00,75.0,24.0,-100.00,SE,144,6.0,12.0,15,0.00,,,0.00,656.000000,,2013-05-07 00:01:00,
2013-05-06 18:11:00,75.0,24.0,-100.00,SE,144,6.0,12.0,15,0.00,,,0.00,656.000000,,2013-05-07 00:11:00,
2013-05-06 18:21:00,75.0,24.0,-100.00,SE,144,6.0,12.0,15,0.00,,,0.00,656.000000,,2013-05-07 00:21:00,
2013-05-06 18:42:00,74.0,23.0,-100.00,South,171,3.0,12.0,15,0.00,,,0.00,445.000000,,2013-05-07 00:42:00,
2013-05-06 18:52:00,74.0,23.0,-100.00,South,171,3.0,12.0,15,0.00,,,0.00,445.000000,,2013-05-07 00:52:00,
2013-05-06 19:01:00,74.0,23.0,-100.00,South,171,3.0,12.0,15,0.00,,,0.00,445.000000,,2013-05-07 01:01:00,
2013-05-06 19:11:00,74.0,23.0,-100.00,South,171,3.0,12.0,15,0.00,,,0.00,445.000000,,2013-05-07 01:11:00,
2013-05-06 19:21:00,74.0,23.0,-100.00,South,171,3.0,12.0,15,0.00,,,0.00,445.000000,,2013-05-07 01:21:00,
2013-05-06 19:53:00,67.0,23.0,-100.00,ESE,113,6.0,12.0,19,0.00,,,0.00,130.000000,,2013-05-07 01:53:00,
2013-05-06 20:02:00,67.0,23.0,-100.00,ESE,113,6.0,12.0,19,0.00,,,0.00,130.000000,,2013-05-07 02:02:00,
2013-05-06 20:11:00,67.0,23.0,-100.00,ESE,113,6.0,12.0,19,0.00,,,0.00,130.000000,,2013-05-07 02:11:00,
2013-05-06 20:21:00,67.0,23.0,-100.00,ESE,113,6.0,12.0,19,0.00,,,0.00,130.000000,,2013-05-07 02:21:00,
2013-05-06 20:52:00,61.0,23.0,-100.00,SE,130,5.0,11.0,23,0.00,,,0.00,19.000000,,2013-05-07 02:52:00,
2013-05-06 21:01:00,61.0,23.0,-100.00,SE,130,5.0,11.0,23,0.00,,,0.00,19.000000,,2013-05-07 03:01:00,
2013-05-06 21:11:00,61.0,23.0,-100.00,SE,130,5.0,11.0,23,0.00,,,0.00,19.000000,,2013-05-07 03:11:00,
2013-05-06 21:22:00,61.0,23.0,-100.00,SE,130,5.0,11.0,23,0.00,,,0.00,19.000000,,2013-05-07 03:22:00,
2013-05-06 21:53:00,54.0,22.0,-100.00,SSE,153,3.0,7.0,28,0.00,,,0.00,0.000000,,2013-05-07 03:53:00,
2013-05-06 22:03:00,54.0,22.0,-100.00,SSE,153,3.0,7.0,28,0.00,,,0.00,0.000000,,2013-05-07 04:03:00,
2013-05-06 22:12:00,54.0,22.0,-100.00,SSE,153,3.0,7.0,28,0.00,,,0.00,0.000000,,2013-05-07 04:12:00,
2013-05-06 22:23:00,54.0,22.0,-100.00,SSE,153,3.0,7.0,28,0.00,,,0.00,0.000000,,2013-05-07 04:23:00,
2013-05-06 22:53:00,54.0,22.0,-100.00,South,176,3.0,8.0,29,0.00,,,0.00,0.000000,,2013-05-07 04:53:00,
2013-05-06 23:02:00,54.0,22.0,-100.00,South,176,3.0,8.0,29,0.00,,,0.00,0.000000,,2013-05-07 05:02:00,
2013-05-06 23:12:00,54.0,22.0,-100.00,South,176,3.0,8.0,29,0.00,,,0.00,0.000000,,2013-05-07 05:12:00,
2013-05-06 23:22:00,54.0,22.0,-100.00,South,176,3.0,8.0,29,0.00,,,0.00,0.000000,,2013-05-07 05:22:00,
2013-05-06 23:52:00,50.0,22.0,-100.00,SSE,156,3.0,7.0,33,0.00,,,0.00,0.000000,,2013-05-07 05:52:00,